Regional Weather Roundup
Issued by NWS

Home | Current Version | Previous Version | Text Only | Print | Product List | Glossary On
Versions: 1 2 3 4 5 6 7 8 9 10 11 12 13 14 15 16 17 18 19 20 21 22 23 24 25 26 27 28 29 30 31 32 33 34 35 36 37 38 39 40 41 42 43 44 45 46 47 48 49 50
809
ASUS44 KLIX 251705
RWRLA
LOUISIANA WEATHER ROUNDUP
NATIONAL WEATHER SERVICE NEW ORLEANS LA
1100 AM CST TUE NOV 25 2014

NOTE: "FAIR" INDICATES FEW OR NO CLOUDS BELOW 12,000 FEET WITH NO
      SIGNIFICANT WEATHER AND/OR OBSTRUCTIONS TO VISIBILITY.
      SKY/WX - SKY CONDITION AND SIGNIFICANT WEATHER.
      TMP - AIR TEMPERATURE.    DP   - DEWPOINT TEMPERATURE.
      RH  - RELATIVE HUMIDITY.  PRES - PRESSURE.
      HX  - HEAT INDEX.         WCI  - WIND CHILL INDEX.

*  THESE STATIONS ARE NOT NWS OR FAA STATIONS AND ARE NOT UNDER
   NWS QUALITY CONTROL.

LAZ040-048-061>063-065-066-069-251800-
SOUTHEAST LOUISIANA

CITY           SKY/WX    TMP DP  RH WIND       PRES   REMARKS
N.O. AUDUBON     N/A     55  36  48 MISG        N/A
N.O. INTL ARPT CLOUDY    55  36  48 N12       30.20F
N.O. LAKEFRONT CLOUDY    56  37  49 N15       30.20S
N.O. DOWNTOWN* CLOUDY    55  34  44 N8G16     30.19F
SLIDELL        CLOUDY    54  37  52 NW6       30.19R
BATON ROUGE    CLOUDY    55  30  38 VRB5      30.24R
BOOTHVILLE     PTSUNNY   58  41  53 N15G23    30.14R
BELLE CHASSE   CLOUDY    58  33  39 N8G18     30.17F
BOGALUSA*        N/A     57  33  41 N7        30.20F
NEW ROADS*     FAIR      56  26  31 N8        30.25S
GONZALES*      FAIR      54  34  47 N5        30.22S
HAMMOND*       CLOUDY    55  32  41 NW3       30.22F
HOUMA*         NOT AVBL
PORT FOURCHON* SUNNY     59  37  44 N17G26    30.18S

$$

LAZ041-044-053-054-251800-
SOUTHWEST LOUISIANA

CITY           SKY/WX    TMP DP  RH WIND       PRES   REMARKS
LAKE CHARLES   CLOUDY    52  35  52 N6        30.28R
LAFAYETTE      CLOUDY    56  32  40 N13       30.25S
PATTERSON      CLOUDY    54  36  50 N9        30.24F
SALT POINT       N/A     59  33  37 VRB7      30.20F
NEW IBERIA     CLOUDY    56  33  42 N9        30.24F
CHENAULT AIRPK CLOUDY    48  37  66 N5        30.28F

$$

LAZ027-028-251800-
CENTRAL LOUISIANA

CITY           SKY/WX    TMP DP  RH WIND       PRES   REMARKS
FORT POLK      CLOUDY    52  32  46 NE3       30.27S
ALEXANDRIA INT CLOUDY    49  35  58 N5        30.27S
ALEXANDRIA     CLOUDY    49  33  54 N3        30.28R

$$

LAZ001-002-251800-
NORTHWEST LOUISIANA

CITY           SKY/WX    TMP DP  RH WIND       PRES   REMARKS
SHREVEPORT     PTSUNNY   54  30  40 VRB5      30.30R
BARKSDALE AFB  CLOUDY    53  26  35 N6        30.30S
DTN SHREVEPORT PTSUNNY   51  30  44 N5        30.31R

$$

LAZ014-016-251800-
NORTHEAST LOUISIANA

CITY           SKY/WX    TMP DP  RH WIND       PRES   REMARKS
MONROE         CLOUDY    51  33  50 N7        30.29R
TALLULAH       CLOUDY    50  30  46 N12       30.27R

$$




USA.gov is the U.S. government's official web portal to all federal, state and local government web resources and services.